Paso Robles, CA

4:22 AM PST on December 06, 2016 (GMT -0800)
Paso Robles Municipal

Weather History for KPRB - March, 2014

Change the Weather History Date:

Tuesday, March 4, 2014

  Actual Average Record
Temperature  
Mean Temperature 59 °F 52 °F  
Max Temperature 66 °F 65 °F 83 °F (1968)
Min Temperature 52 °F 40 °F 24 °F (1985)
Degree Days  
Heating Degree Days 6 13  
Month to date heating degree days 38 52  
Since 1 July heating degree days 1743 2145  
Cooling Degree Days 0 0  
Month to date cooling degree days 0 0  
Year to date cooling degree days 0 0  
Growing Degree Days 8 (Base 50)    
Moisture  
Dew Point 51 °F    
Average Humidity 78    
Maximum Humidity 93    
Minimum Humidity 63    
Precipitation  
Precipitation 0.00 in 0.10 in 1.27 in (1991)
Month to date precipitation 0.77 0.40  
Year to date precipitation 3.43 5.74  
Since 1 July precipitation 3.89  
Sea Level Pressure  
Sea Level Pressure 30.07 in    
Wind  
Wind Speed 1 mph (SW)    
Max Wind Speed 8 mph    
Max Gust Speed 10 mph    
Visibility 10 miles    
Events      
T = Trace of Precipitation, MM = Missing Value Source: NWS Daily Summary

Daily Weather History Graph

Daily Weather History Graph

Search for Another Location

Airport or City:

Trip Planner

Search our weather history database for the weather conditions in past years. The results will help you decide how hot, cold, wet, or windy it might be!

Date:

Astronomy

Mar. 04, 2014 Rise Set
Actual Time 6:28 AM PST 6:00 PM PST
Civil Twilight 6:02 AM PST 6:26 PM PST
Nautical Twilight 5:33 AM PST 6:55 PM PST
Astronomical Twilight 5:03 AM PST 7:25 PM PST
Moon 8:26 AM PST (3/4) 10:03 PM PST (3/4)
Length of Visible Light 12h 23m
Length of Day
11h 32m
Waxing Crescent, 15% of the Moon is Illuminated
Mar 4
Waxing Crescent
Mar 8
First Quarter
Mar 16
Full
Mar 23
Last Quarter
Mar 30
New

Hourly Weather History & Observations

Time (PST) Temp. Dew Point Humidity Pressure Visibility Wind Dir Wind Speed Gust Speed Precip Events Conditions
12:53 AM 55.0 °F 48.9 °F 80% 30.11 in 10.0 mi Calm Calm - N/A   Overcast
1:53 AM 54.0 °F 50.0 °F 86% 30.11 in 10.0 mi Calm Calm - N/A   Overcast
2:53 AM 54.0 °F 50.0 °F 86% 30.08 in 10.0 mi Calm Calm - N/A   Overcast
3:53 AM 54.0 °F 48.9 °F 83% 30.06 in 10.0 mi Calm Calm - N/A   Overcast
4:53 AM 54.0 °F 50.0 °F 86% 30.05 in 10.0 mi Calm Calm - N/A   Overcast
5:25 AM 54.0 °F 50.0 °F 86% 30.06 in 10.0 mi Calm Calm - N/A   Overcast
5:53 AM 54.0 °F 50.0 °F 86% 30.06 in 10.0 mi Calm Calm - N/A   Overcast
6:48 AM 53.6 °F 48.2 °F 82% 30.08 in 10.0 mi SSW 4.6 mph - N/A   Overcast
6:53 AM 53.1 °F 48.0 °F 83% 30.07 in 10.0 mi SSW 5.8 mph - N/A   Overcast
7:53 AM 55.0 °F 48.9 °F 80% 30.09 in 10.0 mi Calm Calm - N/A   Overcast
8:53 AM 55.9 °F 48.9 °F 77% 30.10 in 10.0 mi Calm Calm - N/A   Mostly Cloudy
9:00 AM 55.9 °F 48.9 °F 77% 30.11 in 10.0 mi Calm Calm - N/A   Scattered Clouds
9:53 AM 57.0 °F 50.0 °F 77% 30.11 in 10.0 mi Calm Calm - N/A   Clear
10:53 AM 57.9 °F 50.0 °F 75% 30.11 in 10.0 mi WNW 3.5 mph - N/A   Clear
11:53 AM 60.1 °F 51.1 °F 72% 30.10 in 10.0 mi NNE 4.6 mph - N/A   Clear
12:53 PM 61.0 °F 52.0 °F 72% 30.06 in 10.0 mi NNE 6.9 mph - N/A   Clear
1:53 PM 61.0 °F 52.0 °F 72% 30.04 in 10.0 mi Calm Calm - N/A   Clear
2:53 PM 62.1 °F 52.0 °F 70% 30.04 in 10.0 mi SSW 3.5 mph - N/A   Clear
3:53 PM 64.0 °F 52.0 °F 65% 30.03 in 10.0 mi Calm Calm - N/A   Clear
4:53 PM 64.0 °F 52.0 °F 65% 30.02 in 10.0 mi Calm Calm - N/A   Clear
5:53 PM 63.0 °F 54.0 °F 72% 30.04 in 10.0 mi Calm Calm - N/A   Clear
6:53 PM 60.1 °F 54.0 °F 80% 30.04 in 10.0 mi Calm Calm - N/A   Overcast
7:53 PM 57.0 °F 53.1 °F 87% 30.06 in 10.0 mi ESE 3.5 mph - N/A   Partly Cloudy
8:53 PM 54.0 °F 51.1 °F 90% 30.09 in 10.0 mi West 3.5 mph - N/A   Clear
9:53 PM 54.0 °F 52.0 °F 93% 30.09 in 10.0 mi Calm Calm - N/A   Clear
10:53 PM 53.1 °F 51.1 °F 93% 30.10 in 10.0 mi Calm Calm - N/A   Clear
11:53 PM 52.0 °F 50.0 °F 93% 30.09 in 10.0 mi Calm Calm - N/A   Clear